SHIJIAN-17 (SJ-17)

Last updated on Sun Jun 21 2026 00:03:07 GMT+0000 (Coordinated Universal Time)

1 41838U 16065A 26171.45724087 .00000087 00000+0 00000+0 0 9999 2 41838 5.7621 72.5678 0001949 27.4113 204.1763 0.99855834 35230
UTC large
Height (km)
Speed (km/s)
/
Latitude / Longitude
Inclination (degrees)
Orbital Period (minutes)
Azimuth
Elevation
Range (km)
Doppler Factor

Next 0 passes for location: London (51.5072 / 0.1276)

No passes found over London.
SHIJIAN-17 (SJ-17)